Weather History for Gwinn, MI

Change the Weather History Date:

Monday, July 8, 2013

  Actual Average (KESC) Record (KESC)
Temperature  
Mean Temperature 62 °F -  
Max Temperature 71 °F 75 °F 87 °F (1960)
Min Temperature 54 °F 59 °F 44 °F (2005)
Degree Days  
Heating Degree Days 2    
Growing Degree Days 12 (Base 50)    
Moisture  
Dew Point 57 °F    
Average Humidity 94    
Maximum Humidity 100    
Minimum Humidity 73    
Precipitation  
Precipitation 0.00 in - - ()
Sea Level Pressure  
Sea Level Pressure 29.98 in    
Wind  
Wind Speed 4 mph (NNE)    
Max Wind Speed 13 mph    
Max Gust Speed -    
Visibility 3 miles    
Events Fog , Rain , Thunderstorm    
Averages and records for this station are not official NWS values.
T = Trace of Precipitation, MM = Missing Value Source: NWS Daily Summary

Daily Weather History Graph

Daily Weather History Graph

Search for Another Location

Airport:

Trip Planner

Search our weather history database for the weather conditions in past years. The results will help you decide how hot, cold, wet, or windy it might be!

Date:

Astronomy

Jul. 08, 2013 Rise Set
Actual Time 6:06 AM EDT 9:42 PM EDT
Civil Twilight 5:28 AM EDT 10:20 PM EDT
Nautical Twilight 4:37 AM EDT 11:11 PM EDT
Astronomical Twilight 3:28 AM EDT 12:19 AM EDT
Moon 6:40 AM EDT (7/8) 9:37 PM EDT (7/8)
Length of Visible Light 16h 52m
Length of Day
15h 36m
New Moon, 0% of the Moon is Illuminated
Jul 8
New Moon
Jul 15
First Quarter
Jul 22
Full
Jul 29
Last Quarter
Aug 6
New

Hourly Weather History & Observations

Time (EDT) Temp. Dew Point Humidity Pressure Visibility Wind Dir Wind Speed Gust Speed Precip Events Conditions
12:16 AM 58.6 °F 57.7 °F 97% 29.97 in 0.8 mi NNE 3.5 mph - N/A   Overcast
12:36 AM 57.7 °F 56.8 °F 97% 29.97 in 1.8 mi NNE 3.5 mph - N/A   Overcast
12:56 AM 57.2 °F 56.3 °F 97% 29.97 in 1.8 mi NE 6.9 mph - N/A   Overcast
1:17 AM 56.8 °F 55.9 °F 97% 29.97 in 0.5 mi North 5.8 mph - N/A Fog Fog
1:36 AM 56.3 °F 55.6 °F 97% 29.97 in 0.2 mi North 8.1 mph - N/A Fog Fog
1:56 AM 56.3 °F 55.6 °F 97% 29.96 in 0.5 mi NE 5.8 mph - N/A Fog Fog
2:17 AM 56.1 °F 55.4 °F 97% 29.95 in 0.8 mi NE 6.9 mph - N/A   Overcast
2:36 AM 55.0 °F 54.1 °F 97% 29.96 in 0.8 mi Calm Calm - N/A   Overcast
2:56 AM 54.5 °F 53.6 °F 97% 29.96 in 0.5 mi Calm Calm - N/A Fog Fog
3:16 AM 54.3 °F 53.6 °F 97% 29.96 in 0.8 mi North 4.6 mph - N/A Thunderstorm Overcast
3:36 AM 54.1 °F 53.4 °F 97% 29.96 in 0.5 mi North 3.5 mph - N/A Fog , Thunderstorm Fog
3:57 AM 54.1 °F 53.6 °F 98% 29.96 in 1.2 mi Calm Calm - N/A Thunderstorm Overcast
4:16 AM 54.5 °F 53.8 °F 97% 29.94 in 3.0 mi NNE 6.9 mph - N/A Rain Rain
4:36 AM 54.5 °F 53.6 °F 97% 29.95 in 4.0 mi Calm Calm - N/A Rain Light Rain
4:56 AM 54.7 °F 54.0 °F 97% 29.96 in 5.0 mi Calm Calm - N/A Rain , Thunderstorm Rain
5:16 AM 55.0 °F 54.5 °F 98% 29.97 in 5.0 mi Calm Calm - N/A Rain Light Rain
5:36 AM 55.4 °F 54.5 °F 97% 29.97 in 5.0 mi Calm Calm - N/A Rain , Thunderstorm Rain
5:56 AM 56.3 °F 55.6 °F 97% 29.95 in 4.0 mi Calm Calm - N/A Rain Rain
6:50 AM 57.2 °F 57.2 °F 100% 29.96 in 7.0 mi Calm Calm - N/A Rain Light Rain
7:50 AM 57.2 °F 57.2 °F 100% 29.96 in 0.8 mi North 9.2 mph - N/A   Overcast
8:50 AM 55.4 °F 55.4 °F 100% 29.97 in 0.8 mi NE 8.1 mph - N/A   Overcast
9:50 AM 57.2 °F 55.4 °F 94% 29.98 in 0.2 mi NE 4.6 mph - N/A Fog Fog
10:50 AM 57.2 °F 57.2 °F 100% 29.98 in 0.8 mi Calm Calm - N/A   Overcast
11:50 AM 64.4 °F 62.6 °F 94% 29.98 in 3.0 mi Calm Calm - N/A   Overcast
12:55 PM 71.6 °F 64.4 °F 78% 29.99 in 10.0 mi Calm Calm - N/A   Mostly Cloudy
1:50 PM 71.6 °F 64.4 °F 78% 30.00 in 10.0 mi NE 5.8 mph - N/A   Scattered Clouds
2:50 PM 71.6 °F 62.6 °F 73% 29.99 in 10.0 mi NNE 10.4 mph - N/A   Clear
3:50 PM 69.8 °F 62.6 °F 78% 29.99 in 10.0 mi NNE 10.4 mph - N/A   Clear
4:50 PM 68.0 °F 60.8 °F 78% 30.00 in 10.0 mi NE 12.7 mph - N/A   Clear
5:50 PM 64.4 °F 59.0 °F 83% 30.00 in 7.0 mi NE 12.7 mph - N/A   Mostly Cloudy
6:50 PM 64.4 °F 59.0 °F 83% 30.00 in 7.0 mi NE 6.9 mph - N/A   Mostly Cloudy
7:50 PM 60.8 °F 57.2 °F 88% 30.01 in 3.0 mi NE 4.6 mph - N/A   Overcast
8:50 PM 59.0 °F 57.2 °F 94% 30.02 in 0.5 mi NNE 4.6 mph - N/A   Overcast
9:20 PM 59.0 °F 57.2 °F 94% 30.02 in 0.2 mi North 4.6 mph - N/A Fog Fog
9:50 PM 57.2 °F 57.2 °F 100% 30.03 in 0.5 mi Calm Calm - N/A Fog Fog
10:16 PM 58.5 °F 57.6 °F 97% 30.04 in 1.5 mi Calm Calm - N/A   Overcast
10:36 PM 58.5 °F 57.6 °F 97% 30.03 in 3.0 mi NE 3.5 mph - N/A   Overcast
10:56 PM 58.5 °F 57.2 °F 96% 30.03 in 7.0 mi Calm Calm - N/A   Scattered Clouds
11:16 PM 58.1 °F 56.7 °F 95% 30.03 in 3.0 mi Calm Calm - N/A   Scattered Clouds
11:36 PM 58.1 °F 56.8 °F 96% 30.03 in 4.0 mi Calm Calm - N/A   Mostly Cloudy
11:57 PM 58.1 °F 57.2 °F 97% 30.03 in 5.0 mi Calm Calm - N/A   Scattered Clouds